193  
ASUS44 KBMX 221710  
RWRAL  
 
ALABAMA REGIONAL WEATHER ROUNDUP  
NATIONAL WEATHER SERVICE BIRMINGHAM AL  
1100 AM CST WED NOV 22 2017  
 
NOTE: "FAIR" INDICATES FEW OR NO CLOUDS BELOW 12,000 FEET  
WITH NO SIGNIFICANT WEATHER AND/OR S TO VISIBILITY
.  
 
THE REMARK "TC" DENOTES TEMPERATURE IN DEGREES CELSIUS.  
 
ALZ001>011-014-016>018-020-221800-  
NORTH ALABAMA  
 
CITY SKY/WX TMP DP RH WIND PRES REMARKS
 
MUSCLE SHOALS SUNNY 47 27 45 N9 30.28F  
HUNTSVILLE MOSUNNY 49 34 56 N14 30.24S  
DECATUR SUNNY 47 33 58 N15 30.25F  
HALEYVILLE FAIR 47 31 53 N9 30.24F  
GADSDEN SUNNY 57 40 52 NE12G17 30.18F  

 
 
ALZ012-013-022-023-030>036-040>044-221800-  
WEST CENTRAL ALABAMA  
 
CITY SKY/WX TMP DP RH WIND PRES REMARKS
 
TUSCALOOSA SUNNY 58 40 51 N12 30.20F  
DEMOPOLIS N/A 56 38 52 N8 30.19S  

 
 
ALZ015-024>026-033>036-041>044-221800-  
CENTRAL ALABAMA  
 
CITY SKY/WX TMP DP RH WIND PRES REMARKS
 
BIRMINGHAM MOSUNNY 57 37 47 NE12 30.20F  
MONTGOMERY MOSUNNY 62 37 39 N13 30.12F  
SHELBY CO ARPT SUNNY 58 40 51 N5 30.17F  
MAXWELL AFB CLOUDY 62 41 45 NW12 30.11F  
GREENVILLE FAIR 63 37 38 N13 30.10F  
SELMA FAIR 59 37 44 N12G18 30.14S  
PRATTVILLE FAIR 59 39 47 N9 30.12F  
BESSEMER FAIR 55 38 52 N8 30.18F  
TALLADEGA FAIR 56 39 53 N7 30.17F  
PELL CITY SUNNY 57 39 51 N9 30.17F  
MARION FAIR 58 39 49 N8G16 30.15F  
SYLACAUGA FAIR 58 42 55 N8 30.16F  

 
 
ALZ019-021-028-029-037-038-045>048-221800-  
EAST CENTRAL ALABAMA  
 
CITY SKY/WX TMP DP RH WIND PRES REMARKS
 
ANNISTON SUNNY 57 38 48 N9 30.16F  
ALEXANDER CITY SUNNY 59 38 45 N14 30.12F  
AUBURN CLOUDY 61 42 49 N12 30.11S  

 
 
ALZ051>064-221800-  
SOUTHWEST ALABAMA  
 
CITY SKY/WX TMP DP RH WIND PRES REMARKS
 
MOBILE PTSUNNY 60 38 43 N20 30.11F  
BROOKLEY FIELD MOSUNNY 62 41 46 N10 30.12F  
EVERGREEN SUNNY 63 40 42 N10 30.10F  

 
 
ALZ049-050-065>069-221800-  
SOUTHEAST ALABAMA  
 
CITY SKY/WX TMP DP RH WIND PRES REMARKS
 
DOTHAN MOSUNNY 68 56 65 N10 30.08F  
OZARK MOSUNNY 68 54 61 N7 30.05F  
TROY MOSUNNY 64 45 49 N13 30.09F  
EUFAULA FAIR 68 45 43 NW7 30.05F  

 
 
 
CLICK HERE TO GO TO PREVIOUS BULLETINS.

The Nexlab AL Page Main Text Page